DW5657 Weather Reports


Display with metric or nautical units.
time (UTC)temp
F
wind
direction
speed
MPH
gust
MPH
rain 1hr
in
rain 24hr
in
rain mn
in
humidity
%
barometer
mb
20260507051703 46 126 0.0 0.0 0.00 0.01 0.00 80 1014.0
20260507051205 46 124 0.0 0.0 0.00 0.01 0.00 79 1014.0
20260507045704 47 126 0.0 0.0 0.00 0.03 0.00 80 1014.2
20260507045203 47 125 0.0 0.0 0.00 0.03 0.00 80 1014.2
20260507044704 47 124 0.0 0.0 0.00 0.03 0.00 80 1014.2
20260507043704 47 124 0.0 0.0 0.00 0.03 0.00 79 1014.2
20260507043203 47 126 0.0 0.0 0.00 0.03 0.00 79 1014.2
20260507042705 47 125 0.0 0.0 0.00 0.03 0.00 78 1014.0
20260507041703 47 124 0.0 0.0 0.00 0.03 0.00 78 1014.1
20260507041203 47 121 0.0 0.0 0.00 0.03 0.00 78 1014.1
20260507040703 48 120 0.0 0.0 0.00 0.03 0.00 78 1014.1
20260507040204 48 118 0.0 0.0 0.00 0.03 0.00 78 1014.1
20260507035204 48 121 0.0 0.0 0.00 0.03 0.03 76 1014.0
20260507034704 48 121 0.0 0.0 0.00 0.03 0.03 76 1014.0
20260507033203 48 119 0.0 0.0 0.00 0.03 0.03 76 1014.1
20260507032704 49 119 0.0 0.0 0.00 0.03 0.03 75 1014.1
20260507032203 49 120 0.0 0.0 0.00 0.03 0.03 75 1014.1
20260507031705 49 119 0.0 0.0 0.00 0.03 0.03 75 1014.1
20260507030703 49 117 0.0 0.0 0.00 0.03 0.03 74 1014.2
20260507030204 49 115 0.0 0.0 0.00 0.03 0.03 74 1014.2
20260507025703 50 116 0.0 0.0 0.00 0.03 0.03 74 1014.2
20260507025204 50 115 0.0 0.0 0.00 0.03 0.03 73 1014.2
20260507024204 50 114 0.0 0.0 0.00 0.03 0.03 73 1014.1
20260507023704 50 113 0.0 0.0 0.00 0.03 0.03 72 1014.1
20260507023204 51 112 0.0 0.0 0.00 0.03 0.03 71 1014.1
20260507022205 51 112 0.0 0.0 0.00 0.03 0.03 71 1014.0
20260507021704 51 115 0.0 0.0 0.00 0.03 0.03 70 1014.0
20260507021204 51 115 0.0 0.0 0.00 0.03 0.03 70 1014.0
20260507020205 52 116 0.0 0.0 0.00 0.03 0.03 69 1013.8
20260507015704 52 113 0.0 0.0 0.00 0.03 0.03 69 1013.9
20260507015203 52 113 0.0 0.0 0.00 0.03 0.03 68 1013.9
20260507014204 53 112 0.0 0.0 0.00 0.03 0.03 66 1013.7
20260507013703 53 112 0.0 0.0 0.00 0.03 0.03 66 1013.7
20260507012704 54 107 0.0 0.0 0.00 0.03 0.03 64 1013.5
20260507012204 54 107 0.0 0.0 0.00 0.03 0.03 63 1013.5
20260507011704 54 105 0.0 0.0 0.00 0.03 0.03 62 1013.2
20260507010704 54 108 0.0 0.0 0.00 0.03 0.03 62 1013.4
20260507010203 55 105 0.0 0.0 0.00 0.03 0.03 62 1013.4
20260507005704 55 104 0.0 0.0 0.00 0.03 0.03 61 1013.4
20260507005203 55 105 0.0 0.0 0.00 0.03 0.03 60 1013.2
20260507004704 55 104 0.0 0.0 0.00 0.03 0.03 60 1013.4
20260507004204 55 103 0.0 0.0 0.00 0.03 0.03 60 1013.2
20260507003703 55 103 0.0 0.0 0.00 0.03 0.03 60 1013.4
20260507003204 56 102 0.0 0.0 0.00 0.03 0.03 59 1013.2
20260507002704 56 100 0.0 0.0 0.00 0.03 0.03 59 1013.1
20260507002204 56 100 0.0 0.0 0.00 0.03 0.03 58 1013.0
20260507001705 56 99 1.0 3.0 0.00 0.03 0.03 59 1013.1
20260507001203 56 168 0.0 0.0 0.00 0.03 0.03 57 1013.0
20260507000703 57 163 0.0 2.0 0.00 0.03 0.03 57 1012.9
20260507000205 57 52 0.0 2.0 0.00 0.03 0.03 57 1013.0
20260506235704 57 11 0.0 1.0 0.00 0.03 0.03 57 1012.9
20260506235203 57 135 0.0 2.0 0.00 0.03 0.03 56 1012.7
20260506233704 58 130 0.0 3.0 0.00 0.03 0.03 56 1012.7
20260506233204 58 86 1.0 6.0 0.00 0.03 0.03 55 1012.6
20260506232703 58 139 0.0 2.0 0.00 0.03 0.03 56 1012.6
20260506232203 58 126 0.0 1.0 0.00 0.03 0.03 56 1012.6
20260506231703 58 122 0.0 1.0 0.00 0.03 0.03 57 1012.4
20260506231204 58 146 0.0 3.0 0.00 0.03 0.03 56 1012.2
20260506230705 58 9 0.0 2.0 0.00 0.03 0.03 57 1012.3
20260506230204 58 14 1.0 3.0 0.00 0.03 0.03 54 1012.4
20260506225704 58 75 1.0 2.0 0.00 0.03 0.03 56 1012.4
20260506225204 58 38 0.0 2.0 0.00 0.03 0.03 54 1012.6
20260506224703 58 127 0.0 3.0 0.00 0.03 0.03 54 1012.5
20260506224203 58 86 0.0 2.0 0.00 0.03 0.03 56 1012.5
20260506223704 58 33 0.0 2.0 0.00 0.03 0.03 54 1012.5
20260506223204 58 123 0.0 0.0 0.00 0.03 0.03 54 1012.6
20260506222704 58 131 0.0 2.0 0.00 0.03 0.03 54 1012.7
20260506221705 58 121 1.0 2.0 0.00 0.03 0.03 54 1012.8
20260506221204 58 0 0.0 0.0 0.00 0.03 0.03 54 1012.9
20260506220703 58 5 0.0 1.0 0.00 0.03 0.03 55 1012.9
20260506220203 58 131 0.0 0.0 0.00 0.03 0.03 56 1012.9
20260506215703 59 121 0.0 3.0 0.00 0.03 0.03 54 1012.8
20260506215204 59 71 1.0 2.0 0.00 0.03 0.03 55 1012.9
20260506214205 59 120 0.0 2.0 0.00 0.03 0.03 55 1012.9
20260506213705 59 105 1.0 2.0 0.00 0.03 0.03 54 1012.7
20260506213203 59 135 0.0 5.0 0.00 0.03 0.03 54 1012.7
20260506212703 59 64 0.0 5.0 0.00 0.03 0.03 53 1012.7
20260506212203 59 19 0.0 2.0 0.00 0.03 0.03 53 1012.6
20260506211704 59 90 0.0 1.0 0.00 0.03 0.03 53 1012.6
20260506211203 59 22 0.0 1.0 0.00 0.03 0.03 53 1012.4
20260506210203 60 13 0.0 3.0 0.00 0.03 0.03 54 1012.3
20260506205703 59 15 0.0 3.0 0.00 0.03 0.03 54 1012.3
20260506205204 59 26 0.0 3.0 0.00 0.03 0.03 54 1012.3
20260506204703 59 23 1.0 5.0 0.00 0.03 0.03 54 1012.3
20260506204204 59 17 1.0 3.0 0.00 0.03 0.03 54 1012.3
20260506203703 59 17 0.0 2.0 0.00 0.03 0.03 53 1012.4
20260506203204 59 10 1.0 3.0 0.00 0.03 0.03 52 1012.5
20260506202704 59 110 1.0 2.0 0.00 0.03 0.03 53 1012.5
20260506202204 59 111 0.0 1.0 0.00 0.03 0.03 53 1012.5
20260506201704 59 120 0.0 2.0 0.00 0.03 0.03 53 1012.4
20260506201203 59 40 0.0 2.0 0.00 0.03 0.03 54 1012.3
20260506200703 59 134 1.0 3.0 0.00 0.03 0.03 52 1012.5
20260506200204 59 63 0.0 0.0 0.00 0.03 0.03 51 1012.4
20260506195704 59 96 0.0 2.0 0.00 0.03 0.03 52 1012.5
20260506195204 59 21 1.0 3.0 0.00 0.03 0.03 50 1012.5
20260506194204 59 123 0.0 0.0 0.00 0.03 0.03 51 1012.4
20260506193704 60 96 0.0 2.0 0.00 0.03 0.03 52 1012.4
20260506193204 60 109 1.0 3.0 0.00 0.03 0.03 52 1012.2
20260506192703 60 82 1.0 2.0 0.00 0.03 0.03 54 1012.1
20260506191204 60 119 2.0 5.0 0.00 0.03 0.03 53 1012.0
20260506190703 61 91 2.0 9.0 0.00 0.03 0.03 54 1012.1
20260506190203 61 89 2.0 9.0 0.00 0.03 0.03 53 1011.9
20260506185703 60 127 0.0 6.0 0.00 0.03 0.03 54 1011.8
20260506185205 60 108 1.0 3.0 0.00 0.03 0.03 53 1011.9
20260506184703 60 134 1.0 6.0 0.00 0.03 0.03 55 1012.0
20260506183705 60 75 1.0 7.0 0.00 0.03 0.03 54 1011.7
20260506182203 60 106 2.0 5.0 0.00 0.03 0.03 54 1011.9
20260506181705 60 87 1.0 5.0 0.00 0.03 0.03 54 1011.8
20260506181203 60 88 2.0 8.0 0.00 0.03 0.03 53 1011.9
20260506175704 60 58 1.0 5.0 0.00 0.03 0.03 52 1012.1
20260506175203 60 86 1.0 2.0 0.00 0.03 0.03 55 1012.2
20260506174703 59 88 0.0 1.0 0.00 0.03 0.03 54 1012.2
20260506174203 59 127 1.0 3.0 0.00 0.03 0.03 53 1012.3
20260506173204 59 90 1.0 6.0 0.00 0.03 0.03 55 1012.4
20260506172703 59 73 3.0 12.0 0.00 0.03 0.03 53 1012.2
20260506171203 59 40 1.0 6.0 0.00 0.03 0.03 58 1012.4
20260506170703 59 43 1.0 5.0 0.00 0.03 0.03 59 1012.6
20260506170204 59 26 0.0 2.0 0.00 0.03 0.03 59 1012.6
20260506165705 59 68 0.0 5.0 0.00 0.03 0.03 58 1012.4
20260506164203 59 340 2.0 8.0 0.00 0.03 0.03 60 1012.5
20260506163704 58 230 1.0 3.0 0.00 0.03 0.03 59 1012.5
20260506162704 58 4 1.0 3.0 0.00 0.03 0.03 60 1012.5
20260506162205 58 353 1.0 3.0 0.00 0.03 0.03 59 1012.6
20260506161703 58 11 2.0 7.0 0.00 0.03 0.03 62 1012.6
20260506161204 57 253 1.0 3.0 0.00 0.03 0.03 64 1012.5
20260506160703 57 103 1.0 5.0 0.01 0.03 0.03 63 1012.4
20260506160204 56 140 0.0 2.0 0.01 0.03 0.03 63 1012.4
20260506155703 56 24 0.0 2.0 0.01 0.03 0.03 59 1012.3
20260506155204 55 13 2.0 6.0 0.01 0.03 0.03 63 1012.3
20260506154704 55 43 1.0 5.0 0.01 0.03 0.03 64 1012.2
20260506154203 55 103 1.0 2.0 0.01 0.03 0.03 66 1012.1
20260506153203 54 26 1.0 7.0 0.01 0.03 0.03 67 1012.4
20260506152704 54 147 0.0 2.0 0.01 0.03 0.03 67 1012.6
20260506152203 54 35 1.0 7.0 0.01 0.03 0.03 66 1012.6
20260506151705 54 139 1.0 8.0 0.01 0.03 0.03 64 1012.6
20260506151204 53 144 2.0 8.0 0.01 0.03 0.03 68 1012.3
20260506150704 53 137 0.0 5.0 0.00 0.02 0.02 70 1012.0
20260506150203 53 41 0.0 5.0 0.00 0.02 0.02 70 1012.0
20260506145704 52 11 1.0 6.0 0.00 0.02 0.02 71 1012.0
20260506145203 52 17 1.0 3.0 0.00 0.02 0.02 73 1011.7
20260506144704 51 23 0.0 2.0 0.00 0.02 0.02 73 1011.6
20260506144204 51 151 1.0 5.0 0.00 0.02 0.02 75 1011.5
20260506143704 51 15 1.0 5.0 0.00 0.02 0.02 77 1011.3
20260506142704 51 152 1.0 3.0 0.00 0.02 0.02 77 1011.3
20260506142203 51 153 0.0 0.0 0.00 0.02 0.02 77 1011.4
20260506141703 51 5 0.0 0.0 0.00 0.02 0.02 78 1011.4
20260506141203 50 163 0.0 2.0 0.00 0.02 0.02 79 1011.4
20260506140705 50 133 0.0 3.0 0.00 0.02 0.02 79 1011.4
20260506140204 50 51 0.0 1.0 0.00 0.02 0.02 80 1011.4
20260506135705 50 159 1.0 5.0 0.00 0.02 0.02 81 1011.4
20260506135204 49 38 0.0 5.0 0.00 0.02 0.02 83 1011.2
20260506134704 49 170 0.0 5.0 0.00 0.02 0.02 83 1011.2
20260506134204 48 18 1.0 5.0 0.00 0.02 0.02 83 1011.3
20260506133704 48 147 0.0 1.0 0.00 0.02 0.02 84 1011.2
20260506133204 48 191 0.0 1.0 0.00 0.02 0.02 85 1011.1
20260506132704 47 176 0.0 6.0 0.00 0.02 0.02 85 1011.1
20260506132205 47 179 0.0 0.0 0.00 0.02 0.02 86 1011.0
20260506131204 47 186 1.0 5.0 0.00 0.02 0.02 87 1010.6
20260506130704 47 107 0.0 1.0 0.00 0.02 0.02 88 1010.7
20260506130205 46 17 0.0 0.0 0.00 0.02 0.02 88 1010.9
20260506125203 46 122 0.0 0.0 0.00 0.02 0.02 90 1010.9
20260506124204 46 195 0.0 1.0 0.00 0.02 0.02 90 1010.6
20260506123704 46 195 0.0 0.0 0.00 0.02 0.02 90 1010.7
20260506123208 45 198 0.0 3.0 0.00 0.02 0.02 91 1010.7
20260506122704 45 191 0.0 3.0 0.00 0.02 0.02 91 1010.6
20260506120704 45 12 0.0 0.0 0.00 0.02 0.02 92 1010.2
20260506120205 45 9 0.0 1.0 0.00 0.02 0.02 92 1010.0
20260506115704 45 214 0.0 0.0 0.00 0.02 0.02 92 1010.0
20260506115204 44 0 0.0 0.0 0.00 0.02 0.02 92 1009.8
20260506113205 44 216 0.0 0.0 0.00 0.02 0.02 92 1009.3
20260506112704 44 215 0.0 0.0 0.00 0.02 0.02 92 1009.3
20260506112203 44 223 0.0 2.0 0.00 0.02 0.02 92 1009.2
20260506111705 44 351 0.0 2.0 0.00 0.02 0.02 92 1009.0
20260506111204 44 232 0.0 3.0 0.00 0.02 0.02 92 1009.0
20260506110704 44 11 1.0 3.0 0.00 0.02 0.02 92 1009.1
20260506110203 44 219 0.0 0.0 0.00 0.02 0.02 92 1009.3
20260506105705 44 24 0.0 2.0 0.00 0.02 0.02 92 1009.1
20260506105204 44 19 0.0 1.0 0.00 0.02 0.02 92 1008.8
20260506104705 44 244 1.0 6.0 0.00 0.02 0.02 92 1008.1
20260506104204 45 220 0.0 3.0 0.00 0.02 0.02 92 1008.3
20260506103705 45 218 0.0 1.0 0.00 0.02 0.02 92 1008.4
20260506103204 45 199 0.0 0.0 0.00 0.02 0.02 92 1008.8
20260506102704 45 179 0.0 2.0 0.00 0.02 0.02 92 1008.9
20260506102204 45 155 0.0 2.0 0.00 0.02 0.02 92 1008.9
20260506101703 45 212 0.0 1.0 0.00 0.02 0.02 92 1008.6
20260506101205 45 9 0.0 0.0 0.00 0.02 0.02 92 1008.1
20260506100203 45 5 0.0 0.0 0.00 0.02 0.02 92 1007.8
20260506095704 45 5 0.0 0.0 0.00 0.03 0.02 92 1007.9
20260506095204 45 5 0.0 0.0 0.00 0.03 0.02 92 1007.9
20260506094704 45 5 0.0 0.0 0.00 0.03 0.02 92 1007.8
20260506094205 45 0 0.0 0.0 0.00 0.03 0.02 92 1007.8
20260506093704 45 134 0.0 1.0 0.00 0.03 0.02 92 1008.0
20260506093204 45 207 0.0 3.0 0.00 0.03 0.02 92 1008.1
20260506092705 45 194 0.0 3.0 0.00 0.03 0.02 92 1008.1
20260506092204 45 12 0.0 0.0 0.00 0.03 0.02 92 1007.7
20260506091704 45 3 0.0 2.0 0.00 0.03 0.02 92 1007.4
20260506090204 45 13 0.0 1.0 0.00 0.03 0.02 92 1007.2
20260506085704 45 16 0.0 2.0 0.00 0.03 0.02 92 1007.1
20260506085204 45 5 0.0 0.0 0.00 0.03 0.02 92 1007.3
20260506084205 45 18 1.0 6.0 0.00 0.03 0.02 92 1007.6
20260506083704 45 21 0.0 2.0 0.00 0.03 0.02 92 1007.6
20260506083205 45 33 0.0 6.0 0.00 0.03 0.02 92 1007.5
20260506082704 46 193 2.0 6.0 0.00 0.03 0.02 92 1007.3
20260506082204 46 195 1.0 3.0 0.00 0.03 0.02 92 1007.2
20260506081704 46 196 0.0 5.0 0.00 0.03 0.02 92 1007.1
20260506081203 46 0 2.0 8.0 0.00 0.03 0.02 92 1006.9
20260506080705 46 359 2.0 5.0 0.00 0.03 0.02 92 1007.1
20260506080203 47 188 2.0 5.0 0.00 0.03 0.02 92 1007.0
20260506073204 47 157 1.0 3.0 0.00 0.03 0.02 92 1006.9
20260506072704 47 197 0.0 2.0 0.00 0.03 0.02 92 1006.9
20260506072204 47 189 0.0 2.0 0.00 0.03 0.02 92 1007.1
20260506071204 47 178 0.0 3.0 0.00 0.03 0.02 92 1006.8
20260506070704 48 18 1.0 3.0 0.00 0.03 0.02 92 1006.6
20260506070204 48 172 0.0 7.0 0.00 0.03 0.02 92 1006.6
20260506062204 48 178 1.0 3.0 0.00 0.03 0.02 91 1006.1
20260506061704 49 9 1.0 5.0 0.00 0.03 0.02 91 1005.9
20260506061204 49 174 1.0 3.0 0.00 0.03 0.02 91 1006.0
20260506060704 49 9 1.0 3.0 0.02 0.03 0.02 91 1006.1
20260506060204 50 357 0.0 0.0 0.02 0.03 0.02 91 1006.2